[[{"header":{"parameterUnit":"m.s-1","parameterCategory":1,"la1":30.2991,"la2":30.254,"lo1":-89.0895,"lo2":-89.0444,"dy":0.0017,"dx":0.0017,"nx":28,"ny":28,"refTime":"2025-12-18T09:00:00:Z","depth":0,"parameterNumber":2,"parameterNumberName":"U-component_of_WINDS"},"data":[0,0,0,0,0,0,0,0,0,0,0,0,0,0,0,0,0,0,0,0,0,0,0,0,0,0,0,0,0,0,0,0,0,0,0,0,0,0,0,0,0,0,0,0,0,0,0,0,0,0,0,0,0,0,0,0,0,0,-3.3434,-3.3435,0,-3.3465,-3.3465,-3.3465,-3.338,-3.3378,-3.3375,-3.3372,-3.3406,-3.3409,-3.3412,0,0,0,0,0,0,0,0,0,0,0,0,0,-3.3305,-3.3308,-3.3434,-3.3435,-3.3435,-3.3465,-3.3465,-3.3465,-3.3381,-3.3377,-3.3374,-3.3371,-3.3404,-3.3408,-3.3412,0,0,0,0,0,0,0,0,0,0,0,0,0,-3.3351,-3.3309,-3.3434,-3.3396,-3.3393,-3.3465,-3.3465,-3.3466,-3.3381,-3.3377,-3.3373,-3.337,-3.3403,-3.3408,-3.3413,-3.3523,0,0,-3.3428,-3.343,0,0,0,0,0,0,0,0,-3.3348,-3.3356,-3.3402,-3.3399,-3.3396,-3.3415,-3.3431,-3.3485,-3.3382,-3.3386,-3.3372,-3.3368,-3.3412,-3.3416,-3.343,-3.3525,-3.3526,-3.3429,-3.3432,-3.3434,-3.3435,0,0,0,0,0,0,0,-3.3345,-3.3354,-3.3446,-3.3402,-3.3399,-3.3378,-3.3381,-3.3441,-3.3421,-3.3385,-3.3379,-3.3384,-3.341,-3.3426,-3.343,-3.3526,-3.3429,-3.3433,-3.3436,-3.3438,-3.3713,-3.3717,0,0,0,0,0,0,-3.3347,-3.3352,-3.3445,-3.3447,-3.3362,-3.3384,-3.3386,-3.3413,-3.342,-3.3417,-3.3387,-3.338,-3.3419,-3.3425,-3.3431,-3.3561,-3.3434,-3.3439,-3.3441,-3.3709,-3.3714,-3.3719,0,0,0,0,0,0,-3.3344,-3.3356,-3.3444,-3.3398,-3.3408,-3.339,-3.3421,-3.3415,-3.3431,-3.3421,-3.3417,-3.3407,-3.3416,-3.3424,-3.3501,-3.3561,-3.3441,-3.3445,-3.3704,-3.3711,-3.3716,-3.3822,0,0,0,0,0,0,-3.3341,-3.3356,-3.3397,-3.3399,-3.341,-3.3513,-3.3424,-3.3419,-3.344,-3.3431,-3.3439,-3.3437,-3.3414,-3.3494,-3.3506,-3.3566,-3.3449,-3.3698,-3.3707,-3.3714,-3.3814,-3.3832,-3.3847,0,0,0,0,0,-3.3337,-3.3426,-3.3399,-3.3411,-3.3462,-3.3517,-3.3523,-3.3494,-3.3445,-3.3487,-3.348,-3.3437,-3.3553,-3.3502,-3.3515,-3.3578,-3.3694,-3.3704,-3.3714,-3.3806,-3.3828,-3.3847,0,0,0,0,0,0,-3.3431,-3.3425,-3.3396,-3.3488,-3.3504,-3.3502,-3.3554,-3.3518,-3.3548,-3.3538,-3.3501,-3.3504,-3.3588,-3.359,-3.3534,-3.3685,-3.3615,-3.3628,-3.3681,-3.3702,-3.3719,-3.3717,-3.3453,0,0,0,0,0,-3.3463,-3.3508,-3.35,-3.3582,-3.3591,-3.3572,-3.3595,-3.3571,-3.3585,-3.3592,-3.3591,-3.3607,-3.3647,-3.3674,-3.371,-3.3813,-3.3814,-3.3862,-3.3879,-3.3893,-3.3905,-3.3961,-3.3982,-3.3751,-3.3751,-3.375,0,0,-3.3529,-3.3531,-3.3562,-3.3601,-3.361,-3.3658,-3.3578,-3.3632,-3.3667,-3.36,-3.3672,-3.3672,-3.3688,-3.3778,-3.3818,-3.3783,-3.3969,-3.3906,-3.3917,-3.3921,-3.3973,-3.3995,-3.4014,-3.3757,-3.3756,-3.3755,0,0,-3.3673,-3.3679,-3.3749,-3.3759,-3.3774,-3.376,-3.3777,-3.3781,-3.3778,-3.385,-3.3801,-3.3842,-3.3912,-3.3925,-3.3942,-3.4091,-3.4053,-3.4104,-3.4193,-3.4248,-3.4266,-3.4282,-3.4337,-3.4357,-3.4116,-3.4116,-3.4116,0,-3.3754,-3.3823,-3.3789,-3.3847,-3.3866,-3.3807,-3.3878,-3.3889,-3.3916,-3.3931,-3.389,-3.3977,-3.3983,-3.4076,-3.4113,-3.4127,-3.4146,-3.4104,-3.4266,-3.4282,-3.4296,-3.4348,-3.4369,-3.4122,-3.4122,-3.4121,-3.412,0,-3.3922,-3.3971,-3.4026,-3.4052,-3.4077,-3.4141,-3.4117,-3.4147,-3.4121,-3.4112,-3.4187,-3.4192,-3.4229,-3.4249,-3.4224,-3.4339,-3.4317,-3.4272,-3.4201,-3.4325,-3.4373,-3.4393,-3.4131,-3.4129,-3.4127,-3.4126,0,0,-3.4128,-3.4134,-3.4155,-3.4167,-3.4178,-3.4216,-3.4277,-3.4312,-3.4339,-3.4359,-3.4411,-3.4471,-3.4429,-3.4448,-3.4424,-3.4471,-3.4592,-3.4421,-3.4421,-3.4454,-3.472,-3.4755,-3.4778,-3.4565,-3.4569,-3.4572,-3.4719,0,-3.4272,-3.4377,-3.4348,-3.4453,-3.4499,-3.4443,-3.4496,-3.451,-3.4503,-3.4541,-3.4533,-3.4577,-3.4518,-3.4529,-3.4573,-3.4568,-3.4645,-3.4556,-3.4614,-3.4617,-3.4614,-3.4803,-3.484,-3.4979,-3.4738,-3.4741,-3.4743,0,-3.4454,-3.448,-3.459,-3.4595,-3.4613,-3.4662,-3.4692,-3.4728,-3.4743,-3.4734,-3.4755,-3.4721,-3.4783,-3.471,-3.4795,-3.4736,-3.4757,-3.4758,-3.4763,-3.4768,-3.4689,-3.4816,-3.5022,-3.5044,-3.4772,-3.477,-3.4768,0,-3.4595,-3.4658,-3.4732,-3.4744,-3.475,-3.4786,-3.4791,-3.48,-3.4824,-3.485,-3.4865,-3.4899,-3.4918,-3.4945,-3.4922,-3.4871,-3.5011,-3.4936,-3.5007,-3.5008,-3.504,-3.5039,-3.5255,-3.5052,-3.5052,-3.5051,-3.5051,0,-3.4759,-3.4829,-3.4796,-3.4842,-3.4919,-3.4885,-3.4962,-3.496,-3.4969,-3.5014,-3.4968,-3.5011,-3.4977,-3.5018,-3.5,-3.5074,-3.5082,-3.5078,-3.5073,-3.5083,-3.5084,-3.5098,-3.5089,-3.5057,-3.5055,-3.5054,-3.5053,0,-3.4931,-3.4911,-3.4988,-3.4988,-3.499,-3.5047,-3.5047,-3.5089,-3.5078,-3.5136,-3.5148,-3.5131,-3.5177,-3.5156,-3.5204,-3.5192,-3.5287,-3.5268,-3.5283,-3.5278,-3.535,-3.5345,-3.5585,-3.5615,-3.5391,-3.5393,-3.5395,0,-3.5038,-3.509,-3.5095,-3.5122,-3.513,-3.5173,-3.5197,-3.5165,-3.5192,-3.5212,-3.5253,-3.5294,-3.5325,-3.5401,-3.5394,-3.543,-3.5413,-3.5495,-3.5418,-3.5427,-3.5416,-3.5414,-3.542,-3.5511,-3.5513,-3.5515,-3.5517,0,-3.523,-3.5218,-3.5253,-3.5286,-3.5315,-3.5339,-3.5359,-3.5384,-3.5353,-3.5385,-3.5431,-3.5456,-3.5504,-3.5546,-3.5578,-3.5583,-3.5547,-3.5541,-3.5559,-3.5571,-3.5578,-3.5577,-3.5326,-3.5536,-3.5534,-3.5533,-3.5532,-3.5531,-3.5373,-3.5418,-3.5429,-3.547,-3.5482,-3.5502,-3.5542,-3.5536,-3.5574,-3.5611,-3.559,-3.5644,-3.5657,-3.5696,-3.5706,-3.5749,-3.5716,-3.5743,-3.575,-3.5757,-3.5768,-3.557,-3.5754,-3.5753,-3.5753,-3.5752,-3.5752,0,-3.5565,-3.5569,-3.5607,-3.5637,-3.5669,-3.563,-3.565,-3.5681,-3.5728,-3.5743,-3.5775,-3.5829,-3.5869,-3.5865,-3.5903,-3.5937,-3.5921,-3.5949,-3.5947,-3.5949,-3.5793,-3.5774,-3.5961,-3.5961,-3.5961,-3.5961,-3.5961,-3.5961,-3.5668,-3.5742,-3.5731,-3.581,-3.5813,-3.5865,-3.5881,-3.5899,-3.5911,-3.5973,-3.6006,-3.6002,-3.601,-3.6048,-3.6084,-3.6082,-3.6098,-3.6133,-3.6124,-3.598,-3.5959,-3.594,-3.5922,-3.6136,-3.6136,-3.6276,-3.6277,-3.6278]},{"header":{"parameterUnit":"m.s-1","parameterCategory":1,"la1":30.2991,"la2":30.254,"lo1":-89.0895,"lo2":-89.0444,"dy":0.0017,"dx":0.0017,"nx":28,"ny":28,"refTime":"2025-12-18T09:00:00:Z","depth":0,"parameterNumber":3,"parameterNumberName":"V-component_of_WINDS"},"data":[0,0,0,0,0,0,0,0,0,0,0,0,0,0,0,0,0,0,0,0,0,0,0,0,0,0,0,0,0,0,0,0,0,0,0,0,0,0,0,0,0,0,0,0,0,0,0,0,0,0,0,0,0,0,0,0,0,0,-0.9192,-0.9193,0,-0.9212,-0.9212,-0.9213,-0.9203,-0.9202,-0.9201,-0.9201,-0.922,-0.9221,-0.9222,0,0,0,0,0,0,0,0,0,0,0,0,0,-0.9144,-0.9145,-0.9192,-0.9193,-0.9193,-0.9212,-0.9212,-0.9213,-0.9203,-0.9202,-0.9201,-0.9201,-0.922,-0.9221,-0.9222,0,0,0,0,0,0,0,0,0,0,0,0,0,-0.9165,-0.9145,-0.9192,-0.919,-0.919,-0.9212,-0.9212,-0.9213,-0.9203,-0.9202,-0.9201,-0.92,-0.9219,-0.9221,-0.9222,-0.9247,0,0,-0.9227,-0.9228,0,0,0,0,0,0,0,0,-0.9164,-0.9166,-0.919,-0.919,-0.919,-0.9204,-0.9202,-0.9224,-0.9203,-0.9198,-0.9201,-0.92,-0.9215,-0.9217,-0.9223,-0.9248,-0.9249,-0.9227,-0.9228,-0.9229,-0.9229,0,0,0,0,0,0,0,-0.9162,-0.9166,-0.92,-0.9191,-0.9191,-0.9188,-0.919,-0.9207,-0.9211,-0.9198,-0.9198,-0.92,-0.9215,-0.9221,-0.9223,-0.9249,-0.9227,-0.9228,-0.9229,-0.923,-0.9295,-0.9296,0,0,0,0,0,0,-0.9161,-0.9164,-0.92,-0.9201,-0.9175,-0.9189,-0.9192,-0.92,-0.9211,-0.9211,-0.9201,-0.92,-0.9219,-0.9221,-0.9224,-0.9253,-0.9229,-0.923,-0.9231,-0.9295,-0.9296,-0.9296,0,0,0,0,0,0,-0.916,-0.9164,-0.9199,-0.9182,-0.9187,-0.9191,-0.9201,-0.9201,-0.9207,-0.9212,-0.9213,-0.9206,-0.9218,-0.9221,-0.9241,-0.9253,-0.9231,-0.9232,-0.9294,-0.9295,-0.9296,-0.9312,0,0,0,0,0,0,-0.9159,-0.9164,-0.9174,-0.9183,-0.9188,-0.9217,-0.9202,-0.9202,-0.921,-0.9209,-0.9218,-0.9218,-0.9218,-0.9239,-0.9243,-0.9255,-0.9233,-0.9292,-0.9294,-0.9296,-0.931,-0.9313,-0.9316,0,0,0,0,0,-0.9157,-0.9177,-0.9174,-0.9179,-0.92,-0.9217,-0.922,-0.922,-0.9211,-0.9221,-0.9224,-0.9218,-0.9252,-0.9241,-0.9245,-0.9258,-0.9292,-0.9294,-0.9295,-0.9309,-0.9313,-0.9316,0,0,0,0,0,0,-0.9169,-0.9178,-0.9175,-0.9199,-0.9208,-0.9216,-0.9228,-0.9224,-0.9235,-0.9233,-0.9232,-0.9234,-0.9254,-0.9258,-0.9247,-0.9282,-0.927,-0.9273,-0.9279,-0.9283,-0.9286,-0.9284,-0.9234,0,0,0,0,0,-0.9175,-0.9189,-0.9196,-0.9216,-0.9221,-0.9224,-0.9231,-0.923,-0.9238,-0.9242,-0.9247,-0.9255,-0.9267,-0.9275,-0.9287,-0.9311,-0.9312,-0.9322,-0.9325,-0.9327,-0.9329,-0.9342,-0.9346,-0.9303,-0.9303,-0.9303,0,0,-0.9186,-0.9193,-0.9202,-0.9219,-0.9225,-0.9239,-0.9227,-0.9242,-0.9252,-0.9244,-0.9263,-0.9267,-0.9276,-0.9298,-0.9308,-0.9302,-0.9341,-0.9329,-0.9331,-0.9332,-0.9344,-0.9348,-0.9352,-0.9304,-0.9304,-0.9304,0,0,-0.9214,-0.9221,-0.9238,-0.9245,-0.9255,-0.9257,-0.9261,-0.927,-0.9272,-0.9291,-0.9285,-0.9297,-0.9319,-0.9325,-0.9331,-0.9361,-0.9356,-0.9365,-0.938,-0.9393,-0.9396,-0.9399,-0.9409,-0.9413,-0.9367,-0.9367,-0.9367,0,-0.9227,-0.9248,-0.9248,-0.9263,-0.9271,-0.9265,-0.9282,-0.9288,-0.9301,-0.9306,-0.93,-0.9326,-0.9332,-0.9355,-0.9362,-0.9367,-0.9372,-0.9364,-0.9396,-0.9398,-0.9401,-0.9411,-0.9415,-0.9368,-0.9368,-0.9368,-0.9368,0,-0.9263,-0.9277,-0.929,-0.9303,-0.9312,-0.9328,-0.933,-0.9339,-0.9337,-0.934,-0.9359,-0.9365,-0.9378,-0.9384,-0.9382,-0.9406,-0.9402,-0.9396,-0.9383,-0.9406,-0.9415,-0.9419,-0.937,-0.9369,-0.9369,-0.9369,0,0,-0.9299,-0.9311,-0.9316,-0.9322,-0.9332,-0.9343,-0.9359,-0.9372,-0.9379,-0.9388,-0.9401,-0.9419,-0.9413,-0.942,-0.9419,-0.943,-0.9452,-0.9422,-0.9422,-0.9427,-0.9479,-0.9483,-0.9488,-0.9449,-0.945,-0.9451,-0.9478,0,-0.9326,-0.9355,-0.9355,-0.938,-0.9394,-0.9388,-0.9402,-0.9409,-0.9412,-0.9423,-0.9426,-0.9439,-0.943,-0.9434,-0.9444,-0.9447,-0.9463,-0.9446,-0.9461,-0.9461,-0.9458,-0.9493,-0.9497,-0.9523,-0.9482,-0.9482,-0.9483,0,-0.9363,-0.9373,-0.9401,-0.9409,-0.9414,-0.9427,-0.9438,-0.9449,-0.9457,-0.9458,-0.9466,-0.9464,-0.9479,-0.9467,-0.9488,-0.9476,-0.9482,-0.9485,-0.9486,-0.9487,-0.9473,-0.9494,-0.9531,-0.9535,-0.9488,-0.9488,-0.9487,0,-0.9385,-0.9406,-0.9425,-0.943,-0.9441,-0.9449,-0.9454,-0.9462,-0.9469,-0.9479,-0.9484,-0.9495,-0.9501,-0.951,-0.9511,-0.9502,-0.9532,-0.952,-0.9533,-0.9533,-0.9539,-0.9538,-0.9577,-0.9544,-0.9544,-0.9544,-0.9544,0,-0.9416,-0.9433,-0.9435,-0.9447,-0.9465,-0.9465,-0.9483,-0.9487,-0.9494,-0.9505,-0.9501,-0.9512,-0.9512,-0.9524,-0.9524,-0.9541,-0.9544,-0.9545,-0.9545,-0.9545,-0.9545,-0.9549,-0.9546,-0.9545,-0.9544,-0.9544,-0.9544,0,-0.9444,-0.9447,-0.9467,-0.9475,-0.9477,-0.949,-0.9497,-0.9508,-0.951,-0.9525,-0.9528,-0.9532,-0.9545,-0.9546,-0.9561,-0.9561,-0.9582,-0.958,-0.9579,-0.9578,-0.9591,-0.959,-0.9633,-0.9639,-0.9602,-0.9603,-0.9603,0,-0.9463,-0.9476,-0.9485,-0.9493,-0.9498,-0.9511,-0.9519,-0.9519,-0.9527,-0.9537,-0.9547,-0.9559,-0.9569,-0.959,-0.9594,-0.9605,-0.9603,-0.9617,-0.9605,-0.9604,-0.9602,-0.9601,-0.9602,-0.962,-0.962,-0.962,-0.9621,0,-0.9497,-0.9497,-0.9509,-0.9521,-0.953,-0.9539,-0.9548,-0.9554,-0.9556,-0.9565,-0.9578,-0.9586,-0.9601,-0.9613,-0.9625,-0.9629,-0.9625,-0.9625,-0.9628,-0.9628,-0.9627,-0.9627,-0.9585,-0.9624,-0.9623,-0.9623,-0.9623,-0.9623,-0.952,-0.9531,-0.9539,-0.9552,-0.9559,-0.9567,-0.9577,-0.9581,-0.9592,-0.9605,-0.9604,-0.9619,-0.9626,-0.9641,-0.9646,-0.9657,-0.9652,-0.9658,-0.9659,-0.966,-0.9661,-0.9626,-0.9659,-0.9659,-0.9659,-0.9659,-0.9659,0,-0.9553,-0.9558,-0.957,-0.9582,-0.9592,-0.9588,-0.9597,-0.9606,-0.9618,-0.9626,-0.9636,-0.9651,-0.9663,-0.9668,-0.9679,-0.9687,-0.9686,-0.969,-0.9689,-0.969,-0.9665,-0.966,-0.9691,-0.9691,-0.9691,-0.9691,-0.9691,-0.9691,-0.9571,-0.9589,-0.959,-0.9611,-0.9616,-0.9631,-0.9636,-0.9643,-0.965,-0.9667,-0.9677,-0.968,-0.9686,-0.9698,-0.9709,-0.971,-0.9714,-0.9719,-0.9719,-0.9695,-0.9692,-0.9689,-0.9685,-0.972,-0.972,-0.9744,-0.9744,-0.9744]}]]